Regional Weather Roundup
Issued by NWS

Home | Current Version | Previous Version | Graphics & Text | Print | Product List | Glossary Off
Versions: 1 2 3 4 5 6 7 8 9 10 11 12 13 14 15 16 17 18 19 20 21 22 23 24 25 26 27 28 29 30 31 32 33 34 35 36 37 38 39 40 41 42 43 44 45 46 47 48 49 50

877
ASUS43 KDTX 250910
RWRMI
MICHIGAN HOURLY REGIONAL WEATHER ROUNDUP
NATIONAL WEATHER SERVICE DETROIT/PONTIAC MI
400 AM EST SAT FEB 25 2017

NOTE: "FAIR" INDICATES FEW OR NO CLOUDS BELOW 12,000 FEET WITH NO
SIGNIFICANT WEATHER AND/OR OBSTRUCTION TO VISIBILITY.

MIZ047>049-052>055-059>063-066>070-074>076-081>083-251000-
SOUTHEAST LOWER MICHIGAN

CITY           SKY/WX    TMP DP  RH WIND       PRES   REMARKS
ADRIAN         PTCLDY    39  34  82 W8        29.53F WCI  33
ALMA           CLOUDY    34  31  89 SW17      29.47S WCI  24
ANN ARBOR      PTCLDY    39  33  79 SW13      29.51F WCI  31
BAD AXE        CLOUDY    39  36  86 SW14G24   29.44S WCI  31
CARO           CLOUDY    38  33  81 SW14G29   29.45F WCI  30
DETROIT CITY   CLOUDY    42  35  76 W8G17     29.51S
DETROIT        PTCLDY    42  34  73 W14       29.52F
FLINT          PTCLDY    38  31  76 SW18G24   29.49F WCI  28
GROSSE ILE     CLOUDY    42  35  76 SW7       29.51F
HILLSDALE      CLOUDY    36  32  87 SW6       29.51F WCI  31
HOWELL         PTCLDY    37  32  83 SW12      29.50F WCI  29

CITY           SKY/WX    TMP DP  RH WIND       PRES   REMARKS
JACKSON        CLOUDY    38  32  79 SW6       29.51F WCI  33
LAMBERTVILLE   CLOUDY    43  36  74 W13G18    29.53F
LANSING        MOCLDY    35  29  78 W13       29.52F WCI  26
LAPEER         MOCLDY    39  32  76 W16G24    29.47F WCI  30
MASON          CLOUDY    37  33  85 SW8       29.52F WCI  31
MONROE         CLOUDY    42  35  76 W14G21    29.52F
MT. CLEMENS    CLOUDY    43  36  75 W14       29.48F
PONTIAC        PTCLDY    38  31  76 W16G25    29.47F WCI  29
PORT HOPE        N/A     41  37  86 SW15G24   29.39S
PORT HURON     CLOUDY    43  39  87 SW9G21    29.48R
TRI CITIES     MOCLDY    37  33  85 SW21      29.45R WCI  26
MIDLAND        CLOUDY    38  32  77 SW15G23   29.44S WCI  30
TROY           MOCLDY    42  33  71 SW9       29.51F
SAGINAW HB     MOCLDY    37  32  81 SW17      29.46S WCI  28
$$
MIZ043>046-050>051-056>058-064>065-071>073-077>080-251000-
SOUTHWEST LOWER MICHIGAN

CITY           SKY/WX    TMP DP  RH WIND       PRES   REMARKS
BATTLE CREEK   CLOUDY    35  33  92 SW8       29.52F WCI  29
BENTON HARBOR  LGT SNOW  32  30  92 W13G22    29.58R FOG     WCI  22
BIG RAPIDS     CLOUDY    34  32  92 SW9       29.42S WCI  26
COLDWATER      CLOUDY    38  35  88 SW6       29.52F WCI  33
FREMONT        LGT SNOW  32  32 100 W10G17    29.48R WCI  23
HOLLAND        LGT SNOW  31  28  89 W13       29.55R FOG     WCI  21
GRAND RAPIDS   CLOUDY    32  29  88 SW13      29.51S WCI  22
IONIA          CLOUDY    33  30  91 SW15      29.50F WCI  22
KALAMAZOO      FLURRIES  35  31  85 W8        29.54S WCI  29
LUDINGTON      LGT SNOW  30  28  94 NW9G18    29.47R WCI  22
MARSHALL       RAIN      36  35  94 W3        29.51F
MOUNT PLEASANT CLOUDY    36  33  87 SW16      29.43F WCI  26
MUSKEGON       CLOUDY    30  28  92 W15G22    29.52S WCI  19
SOUTH HAVEN    LGT SNOW  32  31  96 W9        29.56S WCI  24
$$
MIZ016>042-251000-
NORTHERN LOWER MICHIGAN

CITY           SKY/WX    TMP DP  RH WIND       PRES   REMARKS
ALPENA         CLOUDY    33  33 100 W6        29.36R FOG     WCI  28
BEAVER ISLAND  CLOUDY    23  22  96 N6        29.42F FOG     WCI  16
BELLAIRE       LGT SNOW  30  29  99 NW6       29.39R WCI  24
CADILLAC       MIX PCPN  32  31  97 W5        29.37S WCI  27
CHARLEVOIX     CLOUDY    26  26 100 N12       29.42F FOG     WCI  16
FRANKFORT      LGT SNOW  29  28  95 N3        29.44F
GAYLORD        CLOUDY    32  28  85 CALM      29.33F FOG
GRAYLING       CLOUDY    33  32  97 SW3       29.36F FOG
HARBOR SPRINGS CLOUDY    26  24  95 N9        29.38S WCI  16
HOUGHTON LAKE  CLOUDY    34  32  92 SW8       29.38S WCI  27
MANISTEE       LGT SNOW  29  28  96 NW12      29.45R FOG     WCI  19
OSCODA         MIX PCPN  37  36  97 SW12      29.38S WCI  29
PELLSTON       CLOUDY    25  22  88 NW8       29.39S FOG     WCI  16
ROGERS CITY    CLOUDY    32  32  98 CALM      29.37S FOG
TRAVERSE CITY  LGT SNOW  28  26  92 NW13      29.42R FOG     WCI  17
$$
MIZ007>008-015-251000-
EASTERN UPPER MICHIGAN

CITY           SKY/WX    TMP DP  RH WIND       PRES   REMARKS
KINROSS        MIX PCPN  21  20  96 N10       29.38F FOG     WCI  10
MACKINAC ISLAN CLOUDY    22  22 100 N9        29.38F FOG     WCI  12
NEWBERRY       LGT SNOW  20  20  98 N6        29.40F WCI  13
S. S. MARIE    CLOUDY    22  18  85 N7        29.39F FOG     WCI  13
MUNISING         N/A     24  21  88 N15       29.48F WCI  11
$$
MIZ004>006-011>014-085-251000-
CENTRAL UPPER MICHIGAN

CITY           SKY/WX    TMP DP  RH WIND       PRES   REMARKS
MANISTIQUE     CLOUDY    22  22  98 N10       29.43F FOG     WCI  12
ESCANABA       FLURRIES  23  20  88 NW12G18   29.48F WCI  12
MENOMINEE      CLOUDY    21  17  84 NW13G21   29.54S WCI   9
SAWYER-GWINN   LGT SNOW  19  16  88 N18G26    29.48F WCI   3
$$
MIZ001>003-009>011-084-251000-
WESTERN UPPER MICHIGAN

CITY           SKY/WX    TMP DP  RH WIND       PRES   REMARKS
IRON MOUNTAIN  LGT SNOW  18  12  77 NW18G25   29.51F WCI   2
HOUGHTON       CLOUDY    17  11  77 N16       29.59F HAZE    WCI   2
COPPER HARBOR    N/A     21  16  81 NE18G28   29.60F WCI   6
IRONWOOD       FLURRIES  16  10  77 NW13      29.68F WCI   2
$$

ABBREVIATIONS USED IN REMARKS
   TC - TEMPERATURE IN CELSIUS
  WCI - WIND CHILL INDEX
   HX - HEAT INDEX
  VSB - VISIBILITY





USA.gov is the U.S. government's official web portal to all federal, state and local government web resources and services.